FW7504 Weather Reports


Display with metric or nautical units.
time (UTC)temp
F
wind
direction
speed
MPH
gust
MPH
rain 1hr
in
rain 24hr
in
rain mn
in
humidity
%
barometer
mb
20260902230548 94 0 0.0 0.0 0.00 0.00 0.00 56 1017.8
20260902230110 95 0 0.0 4.0 0.00 0.00 0.00 53 1017.9
20260902225553 95 0 0.0 4.0 0.00 0.00 0.00 52 1018.0
20260902225052 95 360 0.0 4.0 0.00 0.00 0.00 50 1017.9
20260902224608 95 0 1.0 4.0 0.00 0.00 0.00 50 1018.0
20260902224054 96 360 0.0 2.0 0.00 0.00 0.00 50 1017.9
20260902223552 96 0 0.0 3.0 0.00 0.00 0.00 50 1018.0
20260902223107 96 0 0.0 3.0 0.00 0.00 0.00 48 1017.9
20260902222553 96 0 0.0 3.0 0.00 0.00 0.00 48 1018.0
20260902222052 97 360 1.0 3.0 0.00 0.00 0.00 47 1018.0
20260902221628 97 0 0.0 3.0 0.00 0.00 0.00 48 1018.0
20260902221055 97 360 1.0 5.0 0.00 0.00 0.00 47 1018.0
20260902220552 97 0 0.0 5.0 0.00 0.00 0.00 46 1018.0
20260902220110 97 360 2.0 5.0 0.00 0.00 0.00 45 1018.1
20260902215603 97 360 1.0 4.0 0.00 0.00 0.00 47 1018.1
20260902215052 97 0 0.0 1.0 0.00 0.00 0.00 47 1018.1
20260902214700 97 0 0.0 1.0 0.00 0.00 0.00 49 1018.0
20260902214051 96 0 0.0 3.0 0.00 0.00 0.00 47 1018.0
20260902213552 96 0 0.0 6.0 0.00 0.00 0.00 48 1018.1
20260902213100 96 360 2.0 6.0 0.00 0.00 0.00 47 1018.1
20260902212552 96 360 3.0 6.0 0.00 0.00 0.00 47 1018.0
20260902212052 95 360 2.0 6.0 0.00 0.00 0.00 49 1018.1
20260902211604 95 360 0.0 2.0 0.00 0.00 0.00 51 1018.2
20260902211049 95 0 0.0 2.0 0.00 0.00 0.00 51 1018.2
20260902210550 95 360 0.0 4.0 0.00 0.00 0.00 49 1018.3
20260902210103 95 360 0.0 4.0 0.00 0.00 0.00 50 1018.3
20260902205556 95 360 1.0 4.0 0.00 0.00 0.00 50 1018.3
20260902205051 95 0 2.0 6.0 0.00 0.00 0.00 51 1018.3
20260902204608 95 360 0.0 6.0 0.00 0.00 0.00 52 1018.2
20260902204053 95 360 0.0 4.0 0.00 0.00 0.00 53 1018.4
20260902203554 95 360 1.0 4.0 0.00 0.00 0.00 53 1018.5
20260902203103 95 360 1.0 4.0 0.00 0.00 0.00 53 1018.5
20260902202554 95 360 1.0 4.0 0.00 0.00 0.00 52 1018.5
20260902202054 95 360 0.0 4.0 0.00 0.00 0.00 52 1018.5
20260902201610 95 0 0.0 4.0 0.00 0.00 0.00 52 1018.7
20260902201053 95 0 0.0 4.0 0.00 0.00 0.00 52 1018.7
20260902200553 95 360 2.0 4.0 0.00 0.00 0.00 51 1018.7
20260902200108 95 360 0.0 5.0 0.00 0.00 0.00 52 1018.8
20260902195555 95 0 1.0 5.0 0.00 0.00 0.00 52 1018.8
20260902195053 94 360 1.0 4.0 0.00 0.00 0.00 52 1019.0
20260902194602 94 360 0.0 3.0 0.00 0.00 0.00 52 1018.9
20260902194053 94 0 0.0 3.0 0.00 0.00 0.00 52 1019.0
20260902193554 94 360 0.0 3.0 0.00 0.00 0.00 55 1019.1
20260902193108 94 360 1.0 3.0 0.00 0.00 0.00 55 1019.2
20260902192557 94 360 1.0 4.0 0.00 0.00 0.00 54 1019.3
20260902192053 94 360 0.0 4.0 0.00 0.00 0.00 53 1019.3
20260902191637 93 360 1.0 5.0 0.00 0.00 0.00 54 1019.4
20260902191057 93 360 1.0 5.0 0.00 0.00 0.00 55 1019.5
20260902190558 93 360 1.0 8.0 0.00 0.00 0.00 55 1019.5
20260902190107 93 0 2.0 8.0 0.00 0.00 0.00 55 1019.6
20260902185554 94 0 2.0 5.0 0.00 0.00 0.00 55 1019.7
20260902185059 94 0 0.0 5.0 0.00 0.00 0.00 55 1019.8
20260902184656 94 360 0.0 5.0 0.00 0.00 0.00 57 1019.7
20260902184053 93 360 0.0 3.0 0.00 0.00 0.00 58 1019.6
20260902183557 93 360 0.0 3.0 0.00 0.00 0.00 59 1019.8
20260902183127 93 360 1.0 4.0 0.00 0.00 0.00 58 1019.8
20260902182553 93 360 1.0 4.0 0.00 0.00 0.00 58 1019.9
20260902182053 92 0 0.0 3.0 0.00 0.00 0.00 58 1019.9
20260902181613 92 360 0.0 4.0 0.00 0.00 0.00 58 1019.9
20260902181052 92 0 0.0 4.0 0.00 0.00 0.00 59 1019.9
20260902180553 92 0 1.0 5.0 0.00 0.00 0.00 59 1020.0
20260902180108 92 360 2.0 5.0 0.00 0.00 0.00 59 1020.1
20260902175554 92 360 0.0 5.0 0.00 0.00 0.00 59 1020.2
20260902175053 92 0 1.0 5.0 0.00 0.00 0.00 60 1020.2
20260902174602 92 0 1.0 5.0 0.00 0.00 0.00 60 1020.3
20260902174054 92 360 2.0 5.0 0.00 0.00 0.00 62 1020.5
20260902173554 92 360 1.0 5.0 0.00 0.00 0.00 63 1020.5
20260902173114 91 360 2.0 5.0 0.00 0.00 0.00 63 1020.5
20260902172555 91 360 0.0 4.0 0.00 0.00 0.00 63 1020.7
20260902172054 91 360 2.0 4.0 0.00 0.00 0.00 63 1020.8
20260902171618 91 360 1.0 6.0 0.00 0.00 0.00 62 1020.9
20260902171056 91 360 3.0 6.0 0.00 0.00 0.00 62 1020.9
20260902170553 91 360 0.0 6.0 0.00 0.00 0.00 63 1020.8
20260902170103 90 360 2.0 6.0 0.00 0.00 0.00 62 1021.0
20260902165553 90 360 1.0 5.0 0.00 0.00 0.00 62 1020.9
20260902165054 90 360 1.0 5.0 0.00 0.00 0.00 63 1021.0
20260902164606 90 360 1.0 5.0 0.00 0.00 0.00 64 1021.1
20260902164054 90 360 1.0 5.0 0.00 0.00 0.00 65 1021.3
20260902163554 89 0 0.0 5.0 0.00 0.00 0.00 64 1021.3
20260902163105 89 360 1.0 3.0 0.00 0.00 0.00 65 1021.5
20260902162553 89 360 1.0 3.0 0.00 0.00 0.00 65 1021.5
20260902162055 89 360 0.0 6.0 0.00 0.00 0.00 66 1021.6
20260902161602 89 0 2.0 6.0 0.00 0.00 0.00 65 1021.6
20260902161053 89 360 1.0 4.0 0.00 0.00 0.00 67 1021.5
20260902160554 88 360 1.0 4.0 0.00 0.00 0.00 67 1021.5
20260902160113 88 360 1.0 4.0 0.00 0.00 0.00 69 1021.6
20260902155554 88 360 0.0 4.0 0.00 0.00 0.00 69 1021.7
20260902155055 88 360 0.0 4.0 0.00 0.00 0.00 68 1021.7
20260902154609 88 0 0.0 4.0 0.00 0.00 0.00 70 1021.7
20260902154055 88 360 1.0 5.0 0.00 0.00 0.00 69 1021.7
20260902153553 88 0 0.0 5.0 0.00 0.00 0.00 70 1021.7
20260902153104 87 360 1.0 4.0 0.00 0.00 0.00 70 1021.7
20260902152555 87 0 0.0 2.0 0.00 0.00 0.00 71 1021.9
20260902152057 87 0 1.0 4.0 0.00 0.00 0.00 71 1021.9
20260902151605 87 360 1.0 4.0 0.00 0.00 0.00 71 1021.7
20260902151055 86 360 0.0 3.0 0.00 0.00 0.00 72 1021.7
20260902150553 85 0 0.0 3.0 0.00 0.00 0.00 72 1021.7
20260902150105 85 360 1.0 3.0 0.00 0.00 0.00 72 1021.7
20260902145554 85 360 0.0 2.0 0.00 0.00 0.00 74 1021.7
20260902145053 85 0 0.0 2.0 0.00 0.00 0.00 74 1021.8
20260902144604 85 0 0.0 1.0 0.00 0.00 0.00 74 1021.8
20260902144053 85 0 0.0 2.0 0.00 0.00 0.00 75 1021.8
20260902143552 85 0 0.0 3.0 0.00 0.00 0.00 75 1021.7
20260902143105 85 0 0.0 3.0 0.00 0.00 0.00 75 1021.8
20260902142550 85 0 1.0 3.0 0.00 0.00 0.00 76 1021.7
20260902142052 85 0 0.0 3.0 0.00 0.00 0.00 76 1021.7
20260902141604 85 0 0.0 4.0 0.00 0.00 0.00 76 1021.7
20260902141054 84 360 2.0 4.0 0.00 0.00 0.00 76 1021.8
20260902140549 84 360 0.0 2.0 0.00 0.00 0.00 78 1021.7
20260902140106 83 360 0.0 4.0 0.00 0.00 0.00 79 1021.8
20260902135550 82 0 1.0 4.0 0.00 0.00 0.00 81 1021.7
20260902135048 82 360 0.0 4.0 0.00 0.00 0.00 82 1021.8
20260902134608 81 0 0.0 3.0 0.00 0.00 0.00 83 1021.7
20260902134052 80 360 0.0 3.0 0.00 0.00 0.00 84 1021.8
20260902133551 80 360 0.0 3.0 0.00 0.00 0.00 85 1021.7
20260902133108 79 360 0.0 3.0 0.00 0.00 0.00 86 1021.8
20260902132552 79 360 0.0 1.0 0.00 0.00 0.00 87 1021.7
20260902132051 78 0 0.0 0.0 0.00 0.00 0.00 88 1021.8
20260902131607 77 0 0.0 0.0 0.00 0.00 0.00 88 1021.7
20260902131051 77 0 0.0 1.0 0.00 0.00 0.00 89 1021.8
20260902130552 76 0 0.0 1.0 0.00 0.00 0.00 89 1021.8
20260902130106 76 0 0.0 2.0 0.00 0.00 0.00 90 1021.7
20260902125552 75 0 0.0 2.0 0.00 0.00 0.00 91 1021.6
20260902125051 75 0 0.0 1.0 0.00 0.00 0.00 91 1021.6
20260902124602 74 0 0.0 1.0 0.00 0.00 0.00 91 1021.7
20260902124049 74 0 0.0 1.0 0.00 0.00 0.00 91 1021.8
20260902123551 74 0 0.0 1.0 0.00 0.00 0.00 92 1021.6
20260902123106 74 0 0.0 0.0 0.00 0.00 0.00 92 1021.6
20260902122549 73 0 0.0 0.0 0.00 0.00 0.00 92 1021.7
20260902122052 73 0 0.0 0.0 0.00 0.00 0.00 92 1021.6
20260902121605 73 0 0.0 0.0 0.00 0.00 0.00 92 1021.5
20260902121050 73 0 0.0 0.0 0.00 0.00 0.00 92 1021.5
20260902120551 73 0 0.0 0.0 0.00 0.00 0.00 92 1021.4
20260902120112 72 0 0.0 0.0 0.00 0.00 0.00 92 1021.4
20260902115548 72 0 0.0 0.0 0.00 0.00 0.00 92 1021.1
20260902115051 72 0 0.0 0.0 0.00 0.00 0.00 91 1021.0
20260902114606 72 0 0.0 0.0 0.00 0.00 0.00 91 1021.0
20260902114051 72 0 0.0 0.0 0.00 0.00 0.00 91 1020.9
20260902113548 72 0 0.0 0.0 0.00 0.00 0.00 91 1020.9
20260902113105 72 0 0.0 0.0 0.00 0.00 0.00 91 1020.8
20260902112639 72 0 0.0 0.0 0.00 0.00 0.00 91 1020.9
20260902112051 72 0 0.0 0.0 0.00 0.00 0.00 91 1020.9
20260902111609 72 0 0.0 0.0 0.00 0.00 0.00 91 1020.9
20260902111048 72 0 0.0 0.0 0.00 0.00 0.00 91 1020.7
20260902110548 72 0 0.0 0.0 0.00 0.00 0.00 91 1020.7
20260902110100 73 0 0.0 0.0 0.00 0.00 0.00 91 1020.7
20260902105552 73 0 0.0 0.0 0.00 0.00 0.00 91 1020.6
20260902105051 73 0 0.0 0.0 0.00 0.00 0.00 91 1020.5
20260902104614 73 0 0.0 0.0 0.00 0.00 0.00 91 1020.5
20260902104051 73 0 0.0 0.0 0.00 0.00 0.00 90 1020.5
20260902103551 73 0 0.0 0.0 0.00 0.00 0.00 90 1020.6
20260902103105 73 0 0.0 0.0 0.00 0.00 0.00 90 1020.5
20260902102551 73 0 0.0 0.0 0.00 0.00 0.00 90 1020.4
20260902102048 73 0 0.0 0.0 0.00 0.00 0.00 90 1020.4
20260902101603 73 0 0.0 0.0 0.00 0.00 0.00 91 1020.4
20260902101051 73 0 0.0 0.0 0.00 0.00 0.00 90 1020.3
20260902100549 73 0 0.0 0.0 0.00 0.00 0.00 90 1020.3
20260902095551 73 0 0.0 0.0 0.00 0.00 0.00 90 1020.4
20260902095048 73 0 0.0 0.0 0.00 0.00 0.00 90 1020.3
20260902094601 73 0 0.0 0.0 0.00 0.00 0.00 90 1020.2
20260902094052 73 0 0.0 0.0 0.00 0.00 0.00 89 1020.2
20260902093550 73 0 0.0 0.0 0.00 0.00 0.00 89 1020.1
20260902093106 73 0 0.0 0.0 0.00 0.00 0.00 89 1020.2
20260902092551 73 0 0.0 0.0 0.00 0.00 0.00 89 1020.1
20260902092053 73 0 0.0 0.0 0.00 0.00 0.00 89 1020.0
20260902091601 74 0 0.0 0.0 0.00 0.00 0.00 89 1020.1
20260902091053 74 0 0.0 0.0 0.00 0.00 0.00 89 1020.1
20260902090549 74 0 0.0 0.0 0.00 0.00 0.00 89 1020.1
20260902090116 74 0 0.0 0.0 0.00 0.00 0.00 89 1020.0
20260902085551 74 0 0.0 0.0 0.00 0.00 0.00 89 1019.9
20260902085048 74 0 0.0 0.0 0.00 0.00 0.00 89 1020.0
20260902084606 74 0 0.0 0.0 0.00 0.00 0.00 88 1019.9
20260902084051 74 0 0.0 0.0 0.00 0.00 0.00 88 1019.9
20260902083551 74 0 0.0 0.0 0.00 0.00 0.00 89 1019.7
20260902083106 74 0 0.0 0.0 0.00 0.00 0.00 88 1019.7
20260902082555 74 0 0.0 0.0 0.00 0.00 0.00 88 1019.8
20260902082048 74 0 0.0 0.0 0.00 0.00 0.00 88 1019.6
20260902081601 74 0 0.0 0.0 0.00 0.00 0.00 88 1019.7
20260902081055 74 0 0.0 0.0 0.00 0.00 0.00 88 1019.6
20260902080553 74 0 0.0 0.0 0.00 0.00 0.00 88 1019.6
20260902075553 74 0 0.0 0.0 0.00 0.00 0.00 87 1019.6
20260902075053 74 0 0.0 0.0 0.00 0.00 0.00 87 1019.5
20260902074612 75 0 0.0 0.0 0.00 0.00 0.00 87 1019.5
20260902074053 75 0 0.0 0.0 0.00 0.00 0.00 87 1019.5
20260902073553 75 0 0.0 0.0 0.00 0.00 0.00 87 1019.6
20260902073103 75 0 0.0 0.0 0.00 0.00 0.00 87 1019.6
20260902072552 75 0 0.0 0.0 0.00 0.00 0.00 87 1019.6
20260902072053 75 0 0.0 1.0 0.00 0.00 0.00 87 1019.6
20260902071610 75 0 0.0 1.0 0.00 0.00 0.00 87 1019.8
20260902071053 75 0 0.0 0.0 0.00 0.00 0.00 86 1019.9
20260902070553 75 0 0.0 0.0 0.00 0.00 0.00 86 1019.8
20260902070103 75 0 0.0 0.0 0.00 0.00 0.00 87 1019.8
20260902065555 75 0 0.0 0.0 0.00 0.00 0.00 86 1019.8
20260902065053 75 0 0.0 0.0 0.00 0.00 0.00 86 1019.8
20260902064604 75 0 0.0 0.0 0.00 0.00 0.00 86 1019.8
20260902064053 75 0 0.0 0.0 0.00 0.00 0.00 86 1019.8
20260902063553 75 0 0.0 0.0 0.00 0.00 0.00 86 1019.8
20260902063101 75 0 0.0 0.0 0.00 0.00 0.00 86 1019.9
20260902062553 76 0 0.0 1.0 0.00 0.00 0.00 85 1019.8
20260902062055 76 0 0.0 1.0 0.00 0.00 0.00 85 1019.7
20260902061056 76 0 0.0 0.0 0.00 0.00 0.00 85 1019.8
20260902060554 76 0 0.0 0.0 0.00 0.00 0.00 85 1019.9
20260902060110 76 0 0.0 0.0 0.00 0.00 0.00 85 1019.9
20260902055553 76 0 0.0 0.0 0.00 0.00 0.00 84 1019.8
20260902055053 76 0 0.0 0.0 0.00 0.00 0.00 85 1019.8
20260902054613 76 0 0.0 0.0 0.00 0.00 0.00 85 1019.9
20260902054052 76 0 0.0 0.0 0.00 0.00 0.00 84 1019.9
20260902053553 76 0 0.0 0.0 0.00 0.00 0.00 84 1019.9
20260902053107 76 0 0.0 0.0 0.00 0.00 0.00 84 1020.0
20260902052553 77 0 0.0 0.0 0.00 0.00 0.00 84 1019.9
20260902052052 77 0 0.0 0.0 0.00 0.00 0.00 84 1019.9
20260902051601 77 0 0.0 0.0 0.00 0.00 0.00 84 1019.9
20260902051053 77 0 0.0 0.0 0.00 0.00 0.00 84 1019.9
20260902050553 77 0 0.0 0.0 0.00 0.00 0.00 83 1019.9
20260902050107 77 0 0.0 0.0 0.00 0.00 0.00 83 1019.9
20260902045553 77 0 0.0 0.0 0.00 0.00 0.00 83 1019.9
20260902045053 77 0 0.0 0.0 0.00 0.00 0.00 83 1019.8
20260902044602 78 0 0.0 0.0 0.00 0.00 0.00 83 1019.8
20260902044053 78 0 0.0 0.0 0.00 0.00 0.00 82 1019.9
20260902043552 78 0 0.0 0.0 0.00 0.00 0.00 82 1019.9
20260902043109 78 0 0.0 0.0 0.00 0.00 0.00 82 1019.8
20260902042552 78 0 0.0 0.0 0.00 0.00 0.00 82 1019.9
20260902042053 78 0 0.0 0.0 0.00 0.00 0.00 82 1019.9
20260902041604 78 0 0.0 0.0 0.00 0.00 0.00 81 1019.8
20260902041052 78 0 0.0 0.0 0.00 0.00 0.00 81 1019.8
20260902040553 78 0 0.0 0.0 0.00 0.00 0.00 81 1019.9
20260902040109 79 0 0.0 0.0 0.00 0.00 0.00 80 1020.0
20260902035552 79 0 0.0 0.0 0.00 0.00 0.00 80 1019.9
20260902035053 79 0 0.0 0.0 0.00 0.00 0.00 80 1019.9
20260902034601 79 0 0.0 0.0 0.00 0.00 0.00 79 1019.8
20260902034053 79 0 0.0 0.0 0.00 0.00 0.00 79 1020.0
20260902033552 79 0 0.0 0.0 0.00 0.00 0.00 79 1019.8
20260902033101 79 0 0.0 0.0 0.00 0.00 0.00 79 1019.9
20260902032553 79 0 0.0 0.0 0.00 0.00 0.00 79 1020.1
20260902032052 80 0 0.0 0.0 0.00 0.00 0.00 79 1020.0
20260902031559 80 0 0.0 0.0 0.00 0.00 0.00 79 1020.0
20260902031053 80 0 0.0 0.0 0.00 0.00 0.00 78 1020.0
20260902030554 80 0 0.0 0.0 0.00 0.00 0.00 78 1020.0
20260902025553 81 0 0.0 0.0 0.00 0.00 0.00 78 1019.9
20260902025054 81 0 0.0 0.0 0.00 0.00 0.00 78 1019.9
20260902024558 81 0 0.0 0.0 0.00 0.00 0.00 78 1020.0
20260902024053 81 0 0.0 0.0 0.00 0.00 0.00 77 1019.9
20260902023552 81 0 0.0 0.0 0.00 0.00 0.00 77 1019.8
20260902023109 82 0 0.0 0.0 0.00 0.00 0.00 76 1019.8
20260902022553 82 0 0.0 0.0 0.00 0.00 0.00 76 1019.9
20260902022053 82 0 0.0 0.0 0.00 0.00 0.00 76 1019.8
20260902021603 82 0 0.0 0.0 0.00 0.00 0.00 76 1019.7
20260902021052 82 0 0.0 0.0 0.00 0.00 0.00 75 1019.7
20260902020553 82 0 0.0 0.0 0.00 0.00 0.00 75 1019.7
20260902020100 82 0 0.0 0.0 0.00 0.00 0.00 75 1019.7
20260902015553 83 0 0.0 0.0 0.00 0.00 0.00 74 1019.7
20260902015052 83 0 0.0 0.0 0.00 0.00 0.00 74 1019.6
20260902014603 83 0 0.0 0.0 0.00 0.00 0.00 73 1019.6
20260902014053 83 0 0.0 0.0 0.00 0.00 0.00 73 1019.5
20260902013556 83 0 0.0 0.0 0.00 0.00 0.00 72 1019.5
20260902013103 84 0 0.0 0.0 0.00 0.00 0.00 72 1019.3
20260902012552 84 0 0.0 0.0 0.00 0.00 0.00 72 1019.2
20260902012053 84 0 0.0 0.0 0.00 0.00 0.00 72 1019.3
20260902011608 84 0 0.0 0.0 0.00 0.00 0.00 71 1019.3
20260902011053 85 0 0.0 0.0 0.00 0.00 0.00 70 1019.3
20260902010553 85 0 0.0 0.0 0.00 0.00 0.00 69 1019.3
20260902010117 85 0 0.0 0.0 0.00 0.00 0.00 69 1019.2
20260902005552 85 0 0.0 0.0 0.00 0.00 0.00 69 1019.1
20260902005054 86 0 0.0 0.0 0.00 0.00 0.00 68 1019.1
20260902004607 86 0 0.0 0.0 0.00 0.00 0.00 68 1019.1
20260902004053 86 0 0.0 0.0 0.00 0.00 0.00 67 1019.2
20260902003553 87 0 0.0 0.0 0.00 0.00 0.00 67 1019.1
20260902003105 87 0 0.0 0.0 0.00 0.00 0.00 66 1019.0
20260902002553 87 0 0.0 0.0 0.00 0.00 0.00 66 1019.1
20260902002053 88 0 0.0 0.0 0.00 0.00 0.00 65 1019.1
20260902001622 88 0 0.0 0.0 0.00 0.00 0.00 64 1019.1
20260902001055 89 0 0.0 0.0 0.00 0.00 0.00 63 1018.9
20260902000552 89 0 0.0 0.0 0.00 0.00 0.00 62 1019.1
20260902000107 90 0 0.0 0.0 0.00 0.00 0.00 61 1019.0
20260901235553 90 0 0.0 0.0 0.00 0.00 0.00 60 1019.1
20260901235053 91 0 0.0 0.0 0.00 0.00 0.00 59 1019.1
20260901234604 91 0 0.0 1.0 0.00 0.00 0.00 57 1019.1
20260901234053 91 0 0.0 2.0 0.00 0.00 0.00 56 1019.1
20260901233553 92 0 0.0 2.0 0.00 0.00 0.00 56 1019.2
20260901233102 92 0 0.0 2.0 0.00 0.00 0.00 55 1019.2
20260901232554 92 0 0.0 5.0 0.00 0.00 0.00 54 1019.3
20260901232054 92 0 0.0 5.0 0.00 0.00 0.00 54 1019.2
20260901231607 92 360 3.0 5.0 0.00 0.00 0.00 53 1019.2
20260901231052 93 360 1.0 6.0 0.00 0.00 0.00 52 1019.2